Temperature
15 15 15 15 16 16 16 16 16 16 16 16 16 16 16 16 16 16 16 16 16 15 15 15 15 15 15 15 15 14 14 14 14 14 14 14 14 13
15 15 15 15 15 15 15 15 15 15 15 16 16 16 16 16 15 15 15 15 15 15 15 15 15 15 14 14 14 14 14 14 14 14 13 13 13 13
15 15 15 15 15 15 15 15 15 15 15 15 15 15 15 15 15 15 15 15 14 14 14 14 14 14 14 14 14 14 14 14 13 13 13 13 13 13
14 14 14 15 15 15 15 15 15 15 15 15 15 15 15 15 14 14 14 14 14 14 14 14 14 14 14 14 13 13 13 13 13 13 13 13 13 13
14 14 14 14 14 14 14 15 15 14 14 14 14 14 14 14 14 14 14 14 14 13 13 13 13 13 13 13 13 13 13 13 13 13 13 12 12 12
13 14 14 14 14 14 14 14 14 14 14 14 14 14 14 14 14 13 13 13 13 13 13 13 13 13 13 13 13 13 13 13 12 12 12 12 12 12
13 13 13 13 14 14 14 14 14 14 14 14 14 14 13 13 13 13 13 13 12 12 12 12 12 12 12 12 12 12 12 12 12 12 12 12 11 11
12 13 13 13 13 13 13 14 14 14 14 14 14 14 13 13 13 13 13 12 12 12 12 12 12 12 12 12 12 12 12 12 11 11 11 11 11 11
12 12 12 12 13 13 13 13 13 13 14 14 14 14 14 14 13 13 13 13 12 12 12 11 11 11 11 11 11 11 11 11 11 11 11 10 10 10
12 12 12 12 12 13 13 13 13 13 13 14 14 14 14 13 13 13 13 12 12 12 11 11 11 11 10 10 10 10 10 10 10 10 10 10 10 10
11 11 12 12 12 12 13 13 13 13 13 13 13 13 13 13 13 13 12 12 12 11 11 11 11 10 10 10 10 10 10 10 10 9 9 9 9 9
11 11 11 12 12 12 13 13 13 13 13 13 13 13 13 13 13 13 13 13 12 11 11 11 11 10 10 9 9 9 9 9 9 9 9 9 9 8
11 11 11 12 12 12 12 13 13 13 13 13 13 13 13 13 13 13 13 13 13 12 12 11 11 11 10 10 9 9 9 9 9 8 8 8 8 8
11 11 11 11 12 12 12 12 13 13 13 13 13 13 13 13 13 12 12 12 12 12 12 12 11 11 11 10 10 9 9 8 8 8 8 8 8 8
11 11 11 11 12 12 12 12 12 13 13 13 13 13 13 13 13 12 12 12 11 11 11 11 11 11 10 10 10 10 9 8 8 8 8 7 7 8
11 11 11 11 12 12 12 12 12 12 13 13 13 12 12 12 12 12 12 11 11 11 11 11 10 10 10 10 10 9 9 8 8 8 7 7 7 7
11 11 11 11 11 12 12 12 12 12 12 12 12 12 12 12 12 11 11 11 11 11 11 10 10 10 10 10 9 9 9 8 8 8 7 7 7 7
11 11 11 11 11 12 12 12 12 12 12 12 12 12 12 12 12 11 11 11 11 11 10 10 10 10 9 9 9 9 9 8 8 8 7 7 7 7
11 11 11 11 11 11 12 12 12 12 12 12 12 12 11 11 11 11 11 11 10 10 10 10 9 9 9 9 9 9 8 8 8 8 7 8 8 7
11 11 11 11 11 11 11 12 12 12 11 11 11 11 11 11 11 11 11 10 10 10 10 9 9 9 9 9 8 8 8 8 8 8 7 7 7 8
10 11 11 11 11 11 11 12 12 11 11 11 11 11 11 11 11 10 10 10 10 9 9 9 9 8 8 8 8 8 8 8 8 8 8 7 7 8
11 11 11 11 11 11 11 11 11 11 11 11 11 11 11 11 10 10 10 10 9 9 9 9 8 8 8 8 8 8 8 8 8 8 8 8 8 8
11 11 11 11 11 11 11 11 11 11 11 11 11 11 10 10 10 10 10 9 9 9 9 8 8 8 8 8 8 8 8 7 7 7 7 7 7 8
Wind_Speed
8 9 8 7 7 6 5 5 6 5 5 4 3 2 4 7 11 14 13 16 16 15 15 14 14 13 11 9 8 6 5 4 4 4 3 2 2 2
5 7 7 6 7 6 6 6 5 5 4 4 3 3 4 6 11 12 11 14 14 14 14 13 12 11 11 10 8 6 5 4 4 3 2 1 0 1
3 5 7 7 7 7 6 5 5 5 4 3 2 3 4 6 7 9 10 11 11 13 12 12 11 11 10 9 8 7 6 5 4 3 2 1 0 1
2 3 5 6 7 6 6 6 6 5 4 5 3 3 3 5 7 6 7 9 9 11 11 11 11 10 10 9 8 7 6 5 4 4 3 2 2 3
1 2 3 5 5 5 6 6 5 5 4 5 4 3 3 4 6 6 7 6 9 11 12 12 12 11 11 10 8 7 7 6 6 5 5 6 6 6
3 2 2 3 5 6 6 6 6 6 5 6 5 4 4 4 6 7 7 5 6 9 12 13 14 13 12 11 10 9 8 8 8 9 9 9 8 9
5 4 3 3 5 5 5 6 7 6 6 6 5 4 4 6 6 5 8 8 6 5 8 8 10 10 10 10 10 10 10 10 10 10 11 11 11 11
4 4 3 4 4 4 6 8 9 8 7 6 4 6 6 6 6 9 9 8 5 4 6 6 6 6 7 9 11 12 12 12 12 12 12 12 11 11
3 3 3 4 4 3 5 6 6 8 9 7 7 6 7 7 9 9 8 6 5 7 6 5 4 5 7 9 11 11 11 12 12 12 11 11 12 12
4 3 3 3 2 3 5 6 5 3 5 6 6 7 7 8 9 8 9 8 8 6 4 4 3 3 4 7 9 10 11 11 11 11 11 11 11 11
4 4 3 2 2 5 6 7 7 5 5 7 8 9 12 15 14 11 10 11 8 3 2 4 4 3 3 2 6 8 9 9 9 9 10 10 10 10
3 4 4 3 4 6 6 7 8 5 5 7 8 8 9 12 15 11 11 11 7 4 3 4 5 4 3 1 2 4 6 7 8 8 7 7 8 8
3 3 3 4 5 6 6 5 7 7 7 8 8 7 7 6 5 6 7 9 7 4 6 5 4 3 4 3 1 1 2 2 4 5 6 6 6 7
2 2 2 4 6 7 6 8 11 9 7 8 8 6 6 5 5 6 9 8 6 6 11 8 5 5 5 4 3 2 2 3 3 3 4 6 6 5
2 4 5 7 7 6 9 11 9 7 7 7 7 5 4 5 6 6 8 10 12 11 8 5 6 6 4 4 4 4 3 2 4 3 3 3 3 3
4 5 8 9 8 8 8 7 5 6 6 7 6 4 4 5 6 5 5 5 6 5 8 8 9 8 4 3 4 4 4 4 3 3 3 2 3 5
3 4 4 5 5 5 5 6 5 5 6 5 6 6 6 6 5 4 4 4 4 3 3 4 10 11 7 5 4 4 3 2 3 3 3 2 3 6
5 4 4 4 4 4 4 4 4 5 5 5 6 5 5 5 4 3 4 4 5 4 3 2 3 4 4 5 3 5 3 3 2 3 3 3 3 5
5 4 3 3 3 3 4 4 3 4 4 5 6 5 5 5 5 5 5 4 4 3 3 2 2 4 3 2 2 1 5 3 3 2 3 4 4 4
3 3 3 3 3 3 3 3 4 4 4 5 5 5 5 5 5 5 5 5 4 3 3 2 2 3 5 5 4 2 4 5 4 3 3 2 3 4
1 2 2 3 3 3 3 4 4 5 5 5 5 5 5 5 5 5 5 7 5 4 4 4 3 4 3 4 3 1 2 5 6 5 4 2 2 2
2 2 2 2 3 3 4 4 4 4 5 4 4 5 5 5 6 6 6 6 5 5 5 3 3 3 3 3 4 3 2 2 3 6 8 8 5 4
4 4 3 3 3 3 3 4 5 5 5 5 5 5 5 4 5 5 6 6 5 4 4 4 3 2 2 3 4 3 3 3 2 2 4 12 16 17
Wind_Direction
208 202 202 200 195 188 178 170 167 182 200 191 181 184 172 163 169 178 185 193 194 195 193 192 189 188 185 179 172 168 166 166 175 181 192 229 260 275
207 201 200 197 192 191 190 184 181 173 183 184 184 169 168 164 165 170 177 186 190 191 190 189 183 179 171 163 159 157 158 159 162 172 183 191 261 3
194 198 201 191 189 189 187 180 181 168 167 162 147 142 150 155 154 160 166 172 182 184 184 181 172 165 160 156 152 150 148 144 140 137 136 140 115 34
174 185 194 186 185 186 184 184 179 166 155 156 146 141 146 153 148 146 149 162 161 164 164 160 154 147 143 142 139 136 132 128 125 123 115 107 92 81
95 153 161 156 170 176 175 172 167 159 139 143 142 134 121 132 126 122 120 118 130 133 129 127 126 123 122 123 124 124 123 121 119 114 106 97 87 78
41 59 107 143 162 166 165 160 154 145 138 136 132 128 120 126 130 132 125 111 110 111 107 106 106 103 105 110 112 114 115 114 110 105 100 94 86 81
45 41 63 113 148 155 157 157 153 148 144 138 137 133 137 147 148 141 133 120 103 108 104 94 92 86 86 94 100 106 107 106 105 102 99 95 90 86
54 44 61 75 101 131 151 160 159 157 156 148 144 152 152 148 139 142 138 138 128 127 109 94 86 84 76 88 101 105 105 104 104 103 101 98 96 92
60 54 57 64 69 87 110 132 150 158 157 153 154 160 154 155 148 149 149 139 124 139 117 95 79 78 67 87 102 105 105 104 102 102 104 104 100 95
53 57 72 53 62 99 109 106 106 118 153 152 159 161 157 154 152 146 136 113 105 112 105 106 95 79 63 68 93 102 105 105 104 104 107 108 104 96
40 45 67 70 91 117 118 118 108 91 94 123 134 141 147 145 140 133 134 137 134 125 100 113 126 104 75 41 73 96 104 107 107 109 114 113 108 98
35 32 38 54 91 121 124 127 125 119 111 100 93 101 120 137 144 149 151 149 139 137 144 119 138 135 123 83 55 88 99 101 103 105 118 129 124 108
42 22 11 45 79 100 112 117 127 120 107 105 99 94 98 109 116 123 137 150 144 140 156 132 140 140 131 140 159 172 152 128 113 101 107 121 136 137
46 12 8 49 81 94 106 116 116 108 102 101 100 99 104 104 104 104 105 95 88 128 154 143 138 152 136 137 163 165 174 181 163 148 129 115 112 120
42 47 58 68 74 82 105 114 112 106 106 104 105 97 92 104 104 97 89 84 73 85 118 138 136 138 132 146 155 155 166 196 188 176 175 172 170 144
44 57 64 66 69 77 87 91 94 106 114 115 111 98 89 93 101 107 107 99 83 51 42 71 135 134 127 128 141 153 164 177 183 184 179 205 222 213
60 59 58 63 69 71 74 82 93 103 105 106 111 110 107 105 97 90 99 93 100 108 63 40 74 84 85 120 126 145 154 169 180 166 158 199 248 231
86 78 75 78 88 97 100 95 99 116 120 120 119 120 123 122 112 96 97 110 116 119 118 116 104 76 62 41 72 151 159 174 178 169 162 179 249 249
86 95 103 106 105 112 117 120 124 129 127 129 131 132 129 127 125 125 121 118 120 126 132 131 117 115 126 192 291 161 168 176 166 178 193 194 224 252
87 108 116 122 125 129 132 128 123 127 131 138 140 142 140 138 139 144 147 145 143 140 143 150 163 164 173 187 198 208 193 174 174 191 209 217 249 287
123 124 130 132 134 138 139 139 141 143 147 148 153 155 152 146 151 158 161 160 149 156 175 198 200 149 123 104 110 247 249 215 205 188 183 186 245 292
178 166 161 151 143 142 143 143 141 146 150 152 160 162 161 160 163 165 167 168 175 178 184 174 139 130 139 163 189 210 232 245 239 231 224 212 183 206
194 187 181 172 160 152 151 156 158 163 165 164 163 164 162 163 168 168 172 171 167 167 160 159 156 156 173 180 188 201 214 216 225 264 265 247 243 249
Height
1489 1491 1494 1498 1501 1505 1509 1512 1516 1518 1521 1524 1527 1530 1534 1537 1540 1542 1545 1548 1551 1553 1555 1557 1559 1561 1562 1563 1564 1564 1565 1565 1565 1565 1565 1564 1564 1563
1484 1486 1489 1492 1495 1499 1502 1506 1510 1513 1516 1520 1523 1526 1529 1533 1535 1538 1541 1544 1547 1550 1552 1555 1557 1558 1560 1561 1562 1562 1563 1563 1563 1563 1563 1562 1562 1561
1481 1483 1485 1488 1490 1493 1497 1500 1504 1508 1512 1515 1519 1522 1525 1528 1531 1534 1538 1541 1544 1547 1550 1552 1554 1556 1557 1559 1560 1560 1561 1561 1561 1561 1560 1560 1559 1559
1478 1480 1482 1484 1487 1490 1493 1496 1499 1503 1507 1511 1514 1518 1522 1525 1528 1531 1535 1538 1541 1544 1546 1549 1551 1553 1555 1556 1558 1559 1559 1559 1559 1559 1558 1558 1557 1556
1477 1479 1480 1482 1484 1487 1489 1492 1496 1500 1504 1507 1511 1515 1519 1522 1525 1529 1532 1535 1538 1541 1543 1546 1548 1551 1552 1554 1555 1556 1557 1557 1557 1556 1556 1556 1555 1554
1477 1478 1479 1481 1483 1485 1487 1490 1494 1497 1501 1505 1508 1512 1516 1519 1523 1526 1530 1533 1536 1539 1541 1544 1546 1549 1551 1552 1553 1554 1554 1555 1555 1554 1554 1553 1553 1553
1478 1479 1480 1481 1483 1485 1487 1489 1492 1496 1499 1503 1506 1510 1514 1517 1521 1524 1528 1531 1535 1538 1540 1543 1545 1547 1549 1551 1552 1552 1553 1553 1553 1552 1552 1552 1551 1551
1479 1479 1480 1481 1483 1484 1487 1489 1492 1495 1498 1501 1505 1508 1511 1515 1519 1522 1526 1529 1534 1538 1540 1542 1545 1547 1548 1550 1550 1551 1551 1552 1551 1551 1551 1551 1550 1550
1479 1480 1481 1482 1483 1484 1487 1489 1492 1495 1498 1501 1504 1506 1510 1513 1517 1521 1525 1529 1532 1536 1539 1542 1544 1546 1548 1549 1550 1550 1550 1551 1551 1551 1550 1550 1550 1549
1480 1481 1481 1482 1484 1485 1487 1489 1492 1495 1498 1501 1504 1507 1510 1514 1517 1520 1524 1528 1532 1536 1539 1541 1544 1546 1547 1549 1549 1550 1550 1550 1550 1550 1550 1550 1549 1549
1481 1481 1482 1483 1484 1485 1487 1489 1492 1495 1498 1501 1504 1507 1510 1513 1516 1520 1523 1527 1531 1534 1538 1540 1542 1545 1547 1548 1549 1549 1550 1550 1550 1550 1550 1549 1549 1548
1481 1482 1483 1483 1485 1486 1488 1490 1493 1495 1498 1501 1504 1507 1510 1513 1517 1520 1523 1526 1529 1533 1536 1539 1541 1544 1546 1548 1548 1549 1550 1550 1550 1550 1549 1549 1548 1548
1482 1483 1483 1484 1485 1487 1489 1491 1494 1497 1499 1502 1505 1508 1511 1514 1517 1520 1524 1527 1529 1532 1535 1538 1540 1542 1544 1546 1548 1549 1549 1549 1549 1549 1549 1548 1548 1547
1484 1484 1485 1486 1487 1489 1491 1493 1496 1499 1501 1504 1506 1509 1512 1515 1518 1521 1524 1527 1531 1533 1535 1537 1539 1541 1543 1545 1546 1547 1548 1548 1548 1548 1548 1548 1547 1547
1486 1486 1486 1488 1489 1491 1494 1496 1498 1501 1503 1506 1508 1511 1514 1516 1519 1522 1524 1527 1530 1532 1534 1537 1539 1541 1543 1544 1545 1546 1546 1547 1547 1547 1547 1547 1547 1546
1488 1488 1489 1490 1492 1494 1496 1499 1502 1504 1507 1509 1511 1514 1516 1518 1521 1523 1525 1528 1530 1532 1534 1536 1538 1540 1542 1543 1544 1544 1545 1545 1545 1546 1546 1546 1546 1545
1491 1491 1492 1494 1495 1497 1499 1502 1505 1507 1509 1512 1514 1516 1518 1520 1522 1524 1526 1528 1530 1532 1534 1536 1537 1539 1541 1542 1542 1543 1543 1544 1544 1544 1544 1544 1544 1544
1493 1494 1495 1497 1498 1500 1502 1505 1507 1509 1512 1514 1516 1517 1519 1521 1523 1525 1527 1529 1530 1532 1533 1535 1536 1538 1539 1540 1541 1541 1541 1542 1542 1542 1542 1542 1542 1542
1496 1497 1498 1499 1501 1503 1505 1507 1509 1511 1513 1515 1517 1519 1520 1522 1524 1525 1527 1529 1530 1532 1533 1534 1535 1537 1538 1539 1539 1540 1540 1540 1540 1540 1540 1540 1539 1540
1498 1499 1500 1501 1503 1504 1506 1508 1510 1512 1514 1516 1518 1519 1521 1522 1524 1525 1527 1528 1530 1531 1532 1533 1534 1535 1536 1537 1538 1538 1538 1538 1538 1538 1537 1537 1537 1537
1498 1499 1501 1502 1503 1505 1507 1508 1510 1512 1514 1516 1518 1519 1521 1522 1524 1525 1526 1528 1529 1530 1531 1532 1533 1533 1534 1535 1535 1535 1536 1535 1535 1535 1535 1534 1534 1533
1498 1499 1500 1502 1503 1505 1506 1508 1510 1512 1513 1515 1517 1518 1520 1521 1522 1524 1525 1526 1527 1528 1529 1530 1530 1531 1531 1532 1532 1532 1533 1533 1532 1532 1532 1531 1531 1530
1498 1499 1500 1501 1502 1504 1505 1507 1509 1510 1512 1513 1515 1516 1518 1519 1521 1522 1523 1524 1525 1526 1527 1527 1528 1528 1528 1528 1528 1529 1529 1529 1529 1529 1529 1528 1527 1527